Date String (YYYY-MM-DD hh:mm:ss) UTC,Instrument flags,absolute air pressure of the measurement (hPa),sample flow rate (lpm),inlet stack bypass flow (lpm),air temperature of the measurement (°C),ambient temperature measured by the external sensor (°C),aerosol sample conditioner tube jacket temperature (°C),OPC LED temperature (°C),internal box temperature (°C),relative humidity of the measurement (%),span deviation,mass concentration of particles derived from Lorenz-Mie calculation of OPC scattering (μg/m³),mass concentration of particles derived from Lorenz-Mie calculation of OPC scattering (μg/m³),mass concentration of particles derived from Lorenz-Mie calculation of OPC scattering (μg/m³)
DateTimeUTC,F1_M11,P_M11,Q1_M11,Q2_M11,T1_M11,T2_M11,T3_M11,T4_M11,T5_M11,U1_M11,ZSPAN_M11,X0_M11,X2_M11,X1_M11
2024-04-05 06:00:00,SystemResetWarning,0822.1,5.00,000.00,025.7,024.9,000.0,034.3,027.5,010.3,0000.0,0007.75,0002.97,0002.11
2024-04-05 06:01:00,SystemResetWarning,0822.1,4.99,000.00,025.7,024.9,000.0,034.3,027.5,010.2,0000.0,0008.48,0002.98,0002.09
2024-04-05 06:02:00,SystemResetWarning,0822.1,5.01,000.00,025.7,024.9,000.0,034.3,027.5,010.0,0000.0,0008.69,0002.95,0002.05
2024-04-05 06:03:00,SystemResetWarning,0822.1,5.01,000.00,025.7,024.9,000.0,034.3,027.5,010.0,0000.0,0009.07,0002.92,0002.03
2024-04-05 06:04:00,SystemResetWarning,0822.1,5.01,000.00,025.7,024.8,000.0,034.3,027.5,010.4,0000.0,0010.14,0002.85,0002.02
2024-04-05 06:05:00,SystemResetWarning,0822.1,4.99,000.00,025.7,024.8,000.0,034.3,027.5,011.0,0000.0,0009.98,0002.86,0002.01
2024-04-05 06:06:00,SystemResetWarning,0822.1,4.99,000.00,025.7,024.8,000.0,034.3,027.5,011.2,0000.0,0010.41,0002.96,0002.02
2024-04-05 06:07:00,SystemResetWarning,0822.1,4.99,000.00,025.7,024.9,000.0,034.3,027.5,011.2,0000.0,0011.66,0003.00,0002.03
2024-04-05 06:08:00,SystemResetWarning,0822.1,5.01,000.00,025.7,024.9,000.0,034.3,027.5,011.2,0000.0,0012.02,0002.95,0002.04
2024-04-05 06:09:00,SystemResetWarning,0822.1,5.01,000.00,025.7,024.9,000.0,034.3,027.5,011.3,0000.0,0011.74,0002.90,0002.03
2024-04-05 06:10:00,SystemResetWarning,0822.1,4.99,000.00,025.7,024.9,000.0,034.3,027.5,011.4,0000.0,0012.23,0002.90,0002.04
2024-04-05 06:11:00,SystemResetWarning,0822.1,4.99,000.00,025.7,024.9,000.0,034.3,027.5,011.3,0000.0,0011.96,0002.88,0002.05
2024-04-05 06:12:00,SystemResetWarning,0822.2,4.99,000.00,025.7,024.9,000.0,034.3,027.5,011.4,0000.0,0011.44,0002.82,0002.05
2024-04-05 06:13:00,SystemResetWarning,0822.1,5.01,000.00,025.7,024.9,000.0,034.3,027.5,011.3,0000.0,0011.06,0002.82,0002.06
2024-04-05 06:14:00,SystemResetWarning,0822.1,5.00,000.00,025.7,024.9,000.0,034.3,027.5,011.0,0000.0,0010.97,0002.84,0002.07
2024-04-05 06:15:00,SystemResetWarning,0822.1,5.01,000.00,025.7,024.9,000.0,034.3,027.5,011.1,0000.0,0009.58,0002.90,0002.08
2024-04-05 06:16:00,SystemResetWarning,0822.1,4.99,000.00,025.7,024.9,000.0,034.3,027.5,011.1,0000.0,0009.63,0002.92,0002.08
2024-04-05 06:17:00,SystemResetWarning,0822.1,4.99,000.00,025.7,024.8,000.0,034.3,027.5,010.9,0000.0,0009.29,0002.86,0002.06
2024-04-05 06:18:00,SystemResetWarning,0822.0,5.00,000.00,025.7,024.8,000.0,034.3,027.5,010.8,0000.0,0008.09,0002.80,0002.04
2024-04-05 06:19:00,SystemResetWarning,0822.0,5.00,000.00,025.7,024.8,000.0,034.3,027.5,010.7,0000.0,0007.84,0002.80,0002.03
2024-04-05 06:20:00,SystemResetWarning,0822.0,5.00,000.00,025.7,024.8,000.0,034.3,027.5,010.6,0000.0,0007.63,0002.82,0002.02
2024-04-05 06:21:00,SystemResetWarning,0822.0,5.01,000.00,025.7,024.8,000.0,034.3,027.5,010.7,0000.0,0006.60,0002.78,0001.99
2024-04-05 06:22:00,SystemResetWarning,0822.0,5.00,000.00,025.7,024.8,000.0,034.3,027.5,010.8,0000.0,0006.34,0002.75,0001.97
2024-04-05 06:23:00,SystemResetWarning,0822.0,5.01,000.00,025.7,024.8,000.0,034.3,027.5,010.6,0000.0,0006.49,0002.78,0001.98
2024-04-05 06:24:00,SystemResetWarning,0822.0,4.99,000.00,025.7,024.8,000.0,034.3,027.5,010.8,0000.0,0006.56,0002.79,0001.97
2024-04-05 06:25:00,SystemResetWarning,0822.0,5.00,000.00,025.7,024.8,000.0,034.3,027.5,010.4,0000.0,0006.28,0002.73,0001.94
2024-04-05 06:26:00,SystemResetWarning,0822.0,5.00,000.00,025.7,024.8,000.0,034.3,027.5,010.6,0000.0,0006.34,0002.71,0001.93
2024-04-05 06:27:00,SystemResetWarning,0822.0,4.99,000.00,025.7,024.8,000.0,034.3,027.5,010.9,0000.0,0006.27,0002.68,0001.93
2024-04-05 06:28:00,SystemResetWarning,0821.9,5.01,000.00,025.7,024.8,000.0,034.3,027.5,010.8,0000.0,0006.32,0002.64,0001.96
2024-04-05 06:29:00,SystemResetWarning,0822.0,5.01,000.00,025.6,024.8,000.0,034.3,027.5,011.1,0000.0,0005.98,0002.64,0001.97
2024-04-05 06:30:00,SystemResetWarning,0822.0,5.01,000.00,025.6,024.8,000.0,034.3,027.5,010.9,0000.0,0006.92,0002.60,0001.96
2024-04-05 06:31:00,SystemResetWarning,0822.1,5.00,000.00,025.6,024.8,000.0,034.3,027.5,011.1,0000.0,0007.29,0002.57,0001.95
2024-04-05 06:32:00,SystemResetWarning,0822.0,5.01,000.00,025.7,024.8,000.0,034.3,027.5,010.9,0000.0,0007.31,0002.61,0001.96
2024-04-05 06:33:00,SystemResetWarning,0822.0,5.00,000.00,025.6,024.8,000.0,034.3,027.5,010.9,0000.0,0007.29,0002.64,0001.98
2024-04-05 06:34:00,SystemResetWarning,0822.0,5.00,000.00,025.6,024.7,000.0,034.3,027.5,010.9,0000.0,0007.17,0002.65,0001.98
2024-04-05 06:35:00,SystemResetWarning,0821.9,5.00,000.00,025.6,024.7,000.0,034.3,027.5,010.7,0000.0,0007.05,0002.62,0001.99
2024-04-05 06:36:00,SystemResetWarning,0821.9,5.00,000.00,025.6,024.8,000.0,034.3,027.5,010.6,0000.0,0007.06,0002.63,0002.00
2024-04-05 06:37:00,SystemResetWarning,0821.9,4.99,000.00,025.6,024.8,000.0,034.3,027.5,010.6,0000.0,0007.12,0002.62,0001.99
2024-04-05 06:38:00,SystemResetWarning,0822.0,4.99,000.00,025.6,024.7,000.0,034.2,027.5,010.4,0000.0,0007.94,0002.67,0001.98
2024-04-05 06:39:00,SystemResetWarning,0822.0,4.99,000.00,025.6,024.8,000.0,034.2,027.5,010.3,0000.0,0007.83,0002.71,0001.96
2024-04-05 06:40:00,SystemResetWarning,0821.9,5.00,000.00,025.6,024.8,000.0,034.2,027.5,010.5,0000.0,0007.76,0002.70,0001.95
2024-04-05 06:41:00,SystemResetWarning,0821.9,5.01,000.00,025.6,024.8,000.0,034.2,027.5,010.5,0000.0,0007.05,0002.68,0001.95
2024-04-05 06:42:00,SystemResetWarning,0821.9,5.01,000.00,025.6,024.8,000.0,034.2,027.5,010.7,0000.0,0006.89,0002.67,0001.95
2024-04-05 06:43:00,SystemResetWarning,0821.9,4.99,000.00,025.6,024.8,000.0,034.2,027.5,010.7,0000.0,0007.00,0002.69,0001.96
2024-04-05 06:44:00,SystemResetWarning,0821.9,4.99,000.00,025.6,024.8,000.0,034.2,027.5,010.3,0000.0,0007.11,0002.65,0001.95
2024-04-05 06:45:00,SystemResetWarning,0821.9,5.00,000.00,025.6,024.8,000.0,034.2,027.5,010.2,0000.0,0006.92,0002.62,0001.94
2024-04-05 06:46:00,SystemResetWarning,0821.9,5.00,000.00,025.6,024.8,000.0,034.2,027.5,010.4,0000.0,0007.06,0002.65,0001.93
2024-04-05 06:47:00,SystemResetWarning,0821.8,5.01,000.00,025.6,024.8,000.0,034.2,027.5,010.2,0000.0,0007.18,0002.68,0001.93
2024-04-05 06:48:00,SystemResetWarning,0821.8,5.01,000.00,025.6,024.8,000.0,034.2,027.5,010.3,0000.0,0007.69,0002.68,0001.94
2024-04-05 06:49:00,SystemResetWarning,0821.8,5.00,000.00,025.6,024.8,000.0,034.2,027.5,010.3,0000.0,0007.26,0002.63,0001.95
2024-04-05 06:50:00,SystemResetWarning,0821.8,5.00,000.00,025.6,024.8,000.0,034.2,027.5,010.3,0000.0,0007.36,0002.60,0001.94
2024-04-05 06:51:00,SystemResetWarning,0821.8,4.99,000.00,025.6,024.8,000.0,034.2,027.4,010.3,0000.0,0007.34,0002.59,0001.96
2024-04-05 06:52:00,SystemResetWarning,0821.8,5.00,000.00,025.6,024.8,000.0,034.2,027.4,010.5,0000.0,0007.36,0002.65,0001.97
2024-04-05 06:53:00,SystemResetWarning,0821.8,5.01,000.00,025.6,024.8,000.0,034.2,027.5,010.4,0000.0,0007.55,0002.74,0001.98
2024-04-05 06:54:00,SystemResetWarning,0821.8,5.01,000.00,025.6,024.7,000.0,034.2,027.4,010.3,0000.0,0007.59,0002.71,0001.98
2024-04-05 06:55:00,SystemResetWarning,0821.8,5.00,000.00,025.6,024.7,000.0,034.2,027.4,010.3,0000.0,0008.00,0002.71,0001.99
2024-04-05 06:56:00,SystemResetWarning,0821.8,5.00,000.00,025.6,024.7,000.0,034.2,027.4,010.1,0000.0,0008.07,0002.76,0001.99
2024-04-05 06:57:00,SystemResetWarning,0821.8,4.99,000.00,025.6,024.7,000.0,034.2,027.4,010.2,0000.0,0008.02,0002.75,0001.98
2024-04-05 06:58:00,SystemResetWarning,0821.8,5.00,000.00,025.6,024.7,000.0,034.2,027.4,010.4,0000.0,0008.12,0002.82,0001.99
2024-04-05 06:59:00,SystemResetWarning,0821.8,5.00,000.00,025.6,024.7,000.0,034.2,027.4,010.4,0000.0,0007.68,0002.80,0001.99
